Theta_e
336 337 337 340 341 343 343 343 344 344 343 343 344 345 344 344 344 344 344 345 348 347 348 348 349 348 349 349 349 348 350 349 348 345 347 348 348 348 347 347 348 346 346 348 348 349 350 352 349 344 342 336 332 330 329 329 327 324 324 326 326 328 328
336 338 339 340 342 343 344 345 345 344 343 343 344 345 344 345 345 345 345 346 347 347 349 351 353 348 349 349 351 348 347 348 355 357 352 354 355 350 349 348 349 349 347 348 349 350 350 349 344 339 336 334 332 332 330 331 329 328 328 328 327 324 324
334 336 338 339 341 343 343 344 345 345 344 344 345 345 345 345 346 346 347 347 347 348 349 350 352 348 349 349 348 347 347 346 347 347 347 349 350 349 349 348 347 348 348 350 351 350 352 347 342 338 335 333 331 331 330 330 330 328 328 327 326 324 324
333 335 337 338 339 341 342 343 345 345 346 346 346 346 345 347 347 347 348 348 347 349 348 349 350 351 349 349 349 349 348 347 347 347 347 345 345 347 347 346 348 349 348 349 351 353 352 348 342 340 337 332 331 330 331 330 328 327 326 327 325 324 324
331 333 335 337 338 338 339 341 341 342 344 347 348 349 347 348 348 348 348 349 349 348 349 349 350 351 349 349 349 349 349 346 345 347 345 347 348 346 345 345 345 346 347 348 354 353 347 343 337 335 334 334 333 333 331 329 328 328 326 326 327 328 324
331 332 334 336 337 337 338 338 339 341 341 343 346 346 348 348 348 349 348 351 348 349 348 347 347 350 347 347 345 342 342 342 344 346 345 345 344 344 345 346 345 345 345 347 353 347 346 341 337 336 333 333 332 331 330 329 329 328 326 325 325 324 324
331 333 335 336 336 336 337 336 337 338 340 341 342 344 347 347 348 349 349 350 350 347 347 347 347 346 346 344 343 343 342 342 343 343 345 345 346 345 345 347 350 346 348 348 347 347 343 338 336 334 334 333 334 330 332 331 330 330 328 328 327 328 326
332 334 335 336 336 335 335 335 336 338 339 339 339 340 342 346 348 348 348 349 348 348 347 347 346 345 344 343 342 343 343 343 344 344 345 346 346 347 347 347 347 348 346 345 347 346 342 337 335 334 333 333 331 331 331 330 330 329 328 328 327 326 327
334 335 335 335 334 333 334 334 335 337 340 339 339 339 341 344 346 347 348 347 347 347 347 347 346 344 343 342 343 344 344 344 344 345 345 345 346 346 347 347 348 349 346 345 344 345 343 337 335 334 334 333 332 332 330 330 328 328 327 326 325 324 323
331 333 332 331 331 332 333 334 335 335 336 338 338 339 340 343 346 347 347 346 345 345 345 345 344 344 342 343 344 345 345 345 345 345 345 345 345 345 346 346 347 350 347 346 345 340 340 337 336 334 334 332 331 329 328 327 327 327 327 326 325 323 321
330 329 329 329 329 331 332 333 333 333 334 335 337 339 340 342 344 346 346 346 344 343 344 343 344 343 343 344 344 344 345 345 345 345 345 345 345 345 345 346 347 349 349 346 345 343 339 337 336 334 333 330 328 328 327 327 326 326 326 326 325 322 321
327 327 327 327 328 331 331 332 333 333 334 335 337 338 340 341 343 345 346 346 347 344 343 343 344 343 343 344 344 344 345 345 344 344 345 345 345 345 345 346 346 346 348 347 342 340 338 337 335 333 330 329 328 328 328 328 327 326 326 325 325 324 322
326 326 328 329 331 331 331 331 332 333 334 335 337 337 338 340 342 344 345 345 345 345 345 345 343 343 344 344 345 345 345 345 345 346 345 345 345 346 346 346 346 346 346 345 339 336 335 333 331 330 328 328 328 327 327 327 328 329 328 328 327 325 323
335 328 328 328 330 330 331 331 332 333 333 335 336 336 338 341 342 342 343 343 342 344 345 347 343 343 344 344 344 345 345 345 346 345 345 346 346 346 346 346 345 343 344 342 336 335 332 329 329 329 329 329 330 329 330 328 329 331 332 331 327 325 324
326 326 327 328 327 328 330 332 333 333 333 334 335 335 337 339 341 341 341 341 342 343 342 345 343 342 343 344 344 345 345 346 346 348 348 346 346 347 346 345 343 342 340 337 335 333 331 329 327 324 323 324 325 326 327 328 329 334 337 333 326 324 324
325 326 327 328 329 331 332 333 333 333 333 334 334 335 337 338 339 340 339 339 341 341 342 346 342 342 342 342 343 345 346 347 348 346 346 346 346 346 346 344 343 341 338 334 333 331 330 327 325 324 323 323 324 325 326 327 331 336 337 335 329 324 324
325 326 326 328 329 331 332 333 334 333 333 333 334 335 336 337 339 339 340 340 340 340 343 345 343 342 342 343 344 346 347 347 346 344 342 342 343 343 343 343 341 339 337 333 332 330 328 323 322 322 323 323 324 325 326 328 331 334 334 334 333 328 325
326 325 326 327 329 331 332 334 334 333 333 333 335 336 337 337 338 340 340 340 340 341 344 343 343 342 343 344 346 347 347 346 344 342 342 342 341 340 340 342 340 337 334 331 328 326 323 321 321 322 322 323 324 324 326 327 330 332 332 332 332 331 327
325 326 326 328 330 333 333 334 334 334 334 334 335 336 338 339 339 339 340 339 341 344 342 342 342 341 341 343 346 346 345 344 342 342 342 341 340 339 340 340 339 336 333 330 327 324 321 321 321 321 321 323 324 323 324 325 329 330 331 331 331 331 328
325 327 328 329 331 332 333 334 335 336 336 335 336 339 340 343 341 341 343 344 343 342 340 340 340 342 343 344 346 345 344 343 343 343 342 341 341 340 339 339 339 338 334 330 326 322 320 320 321 320 321 322 322 323 324 326 329 330 330 330 330 331 329
326 328 329 330 330 332 334 334 334 335 335 337 338 340 340 340 342 342 342 341 340 341 341 340 340 341 342 344 345 343 341 341 342 342 343 341 341 339 339 338 336 334 332 328 325 322 320 320 319 323 326 321 321 324 321 322 328 328 328 329 329 329 328
327 329 330 332 332 332 332 334 334 335 336 341 341 341 341 341 343 342 340 340 340 341 341 340 340 341 342 342 340 338 340 340 340 341 342 341 340 339 338 337 334 332 332 328 326 324 322 322 325 323 320 320 320 319 320 321 327 326 326 326 327 328 323
329 330 332 333 333 334 334 335 335 336 340 339 340 340 340 341 342 341 340 339 340 340 341 340 340 341 342 340 340 338 339 341 341 341 341 340 339 338 337 335 334 334 333 327 325 322 321 322 324 322 320 322 322 319 321 321 327 324 324 324 326 326 319
331 331 333 334 335 336 336 336 337 339 342 341 341 340 340 342 342 341 339 339 339 339 339 339 339 340 340 339 342 342 341 341 341 341 341 339 339 338 337 336 336 335 333 327 324 322 322 323 321 320 323 325 320 319 321 321 327 324 322 322 325 327 317
328 334 335 336 336 336 336 336 338 343 345 341 341 340 340 341 342 341 340 341 339 338 338 338 338 339 338 338 340 342 342 340 339 340 340 339 339 339 337 335 335 335 330 327 325 324 323 327 320 320 320 321 322 327 324 320 326 322 319 321 324 327 318
330 333 336 339 339 339 339 343 345 343 340 339 340 341 340 341 341 343 341 341 339 338 338 338 340 339 340 341 342 342 342 341 340 339 339 339 339 338 335 336 333 329 326 323 323 323 323 327 320 319 320 321 325 325 326 322 325 326 314 320 322 325 327
332 336 337 338 339 352 340 337 340 339 338 339 339 341 342 341 340 340 343 342 338 338 340 339 340 341 341 340 341 341 341 341 340 339 339 340 339 338 337 332 328 326 323 320 320 320 320 320 320 319 320 321 322 323 323 324 321 325 315 317 319 321 326
342 344 348 354 354 350 338 338 337 336 337 339 340 342 342 341 340 341 341 341 338 339 341 340 339 340 340 340 339 340 340 340 339 339 339 340 340 336 333 329 326 325 321 319 319 319 318 320 324 320 322 323 324 327 324 329 328 322 321 318 316 317 323
341 342 343 346 347 352 347 341 340 339 338 338 340 341 341 341 340 342 343 340 341 342 341 340 339 338 338 339 339 339 339 339 340 338 339 339 340 336 330 326 324 323 321 318 317 317 317 318 321 321 323 323 323 322 322 320 325 326 324 322 317 315 317
338 340 342 345 348 350 350 343 344 343 341 338 342 340 339 340 340 342 343 340 340 342 342 340 338 338 339 340 339 339 338 339 339 339 340 340 338 334 329 325 322 321 320 318 319 317 317 317 320 320 321 322 322 323 321 320 317 324 328 326 320 316 315
336 338 340 342 345 348 344 341 341 342 344 341 340 340 338 338 339 343 342 341 341 338 338 338 338 338 338 339 339 338 338 339 339 340 339 338 336 332 329 324 322 320 319 319 317 316 317 317 322 321 322 321 322 319 319 317 316 315 322 325 326 321 317
337 338 339 342 343 345 341 339 340 340 341 343 344 341 342 339 338 341 340 343 345 341 337 337 337 337 338 338 338 337 337 337 338 338 338 336 334 332 328 325 323 321 319 318 317 317 316 318 323 322 322 321 320 318 317 317 315 315 314 321 319 321 318
334 335 336 337 342 343 338 338 337 339 340 340 341 344 343 340 339 340 341 341 342 345 340 336 337 337 336 336 336 337 336 336 336 337 336 334 332 330 329 327 323 324 327 322 319 318 318 321 325 324 322 322 317 316 317 316 314 314 313 312 312 314 314
332 335 335 336 339 340 337 337 336 337 338 338 338 341 345 346 343 342 342 341 340 339 340 339 337 335 334 335 337 336 336 336 340 338 334 333 330 328 327 326 325 324 324 323 320 319 319 323 325 323 322 319 316 315 316 315 314 316 315 314 314 313 311
332 334 335 337 337 339 337 338 338 337 338 338 338 339 341 344 345 343 342 342 341 338 336 337 339 337 334 335 336 336 337 336 336 335 333 328 322 317 318 319 320 320 320 320 318 320 321 321 323 324 320 316 316 315 313 316 316 320 316 314 307 308 307
333 335 336 336 336 335 337 340 338 338 339 338 339 340 341 343 344 343 341 340 339 339 337 338 337 335 334 336 336 336 336 335 335 335 331 325 318 316 315 313 308 312 319 322 321 311 308 316 322 322 317 315 315 314 313 313 315 311 299 297 297 298 298
334 334 335 336 335 335 337 338 340 339 339 339 340 341 341 342 344 342 339 339 340 340 339 338 336 335 334 336 336 336 336 337 336 333 327 323 320 317 317 314 313 301 305 315 314 305 299 300 308 313 315 319 313 314 312 312 302 297 296 296 297 295 294
334 335 336 336 335 336 336 336 337 337 339 338 340 339 339 340 343 343 339 338 339 339 338 338 336 334 334 335 336 339 338 332 331 328 324 321 320 317 316 314 313 315 303 301 306 303 298 296 297 299 304 307 313 320 314 304 298 295 294 296 296 296 295
Wind_Speed
1 2 3 5 5 7 8 8 7 6 5 5 4 4 3 3 3 3 4 4 6 5 4 4 4 4 4 4 4 4 3 3 3 2 3 3 3 4 3 2 2 1 0 0 2 2 2 2 4 5 4 5 5 5 5 5 5 5 6 5 5 5 4
4 4 4 5 6 6 5 4 2 1 1 1 2 3 3 4 4 4 3 3 5 5 5 4 4 4 4 3 2 3 3 2 2 2 3 3 2 2 3 3 2 1 2 1 1 2 3 3 5 5 5 5 5 5 5 5 5 5 5 5 5 5 4
4 5 6 6 5 4 3 2 1 1 1 2 2 1 2 3 4 4 4 4 4 4 3 4 4 5 3 3 5 4 3 4 4 4 4 4 3 3 2 2 2 1 1 1 0 2 3 4 5 5 5 5 4 5 4 5 5 5 5 5 5 4 4
5 7 7 5 4 3 2 1 1 0 1 2 3 3 2 3 4 3 4 5 5 4 4 4 4 4 4 5 5 4 4 3 3 4 4 4 4 3 2 1 1 1 1 1 1 2 3 4 5 5 4 5 5 4 4 4 4 4 4 4 5 4 4
6 6 5 5 4 3 2 1 1 1 2 2 2 1 3 3 3 3 3 4 5 5 4 5 3 5 5 4 3 3 3 4 4 3 4 4 4 3 3 1 1 1 2 2 0 4 4 5 5 4 4 4 5 4 4 3 3 3 4 3 4 4 4
7 7 6 4 3 3 1 1 3 3 4 4 3 4 4 4 4 5 5 5 4 2 3 3 4 5 5 4 4 4 4 5 4 4 4 4 4 4 3 3 2 2 2 1 1 4 4 4 5 5 5 3 3 3 3 3 3 3 4 4 4 3 3
7 7 5 4 3 2 0 2 4 4 4 5 5 4 4 4 5 4 3 5 5 6 5 4 4 5 4 4 5 6 6 5 5 5 4 5 5 5 3 3 3 2 1 1 2 4 5 5 5 5 5 5 3 2 3 3 4 4 3 3 4 3 3
8 7 6 3 1 1 1 3 4 4 4 4 5 6 6 6 5 5 5 4 5 5 5 5 5 5 5 5 5 6 6 5 5 5 5 6 5 5 3 3 3 2 2 2 1 4 5 6 4 5 5 4 4 3 4 4 4 3 3 3 4 4 3
7 5 3 2 3 3 3 3 1 3 3 3 4 4 5 5 5 4 5 6 4 2 3 3 4 5 5 6 6 6 6 5 5 5 6 6 4 4 3 2 3 3 3 3 3 3 4 5 5 5 5 5 4 5 5 4 3 3 4 4 4 4 4
5 3 2 5 3 4 3 2 2 2 4 3 1 2 4 4 4 3 2 4 5 5 4 2 3 4 5 6 6 6 6 5 5 6 5 5 3 4 3 3 4 4 4 3 3 4 4 4 5 5 5 5 5 5 4 4 4 4 4 4 4 4 4
3 2 3 6 5 4 2 2 2 2 3 4 3 2 2 3 4 3 3 3 3 4 4 4 2 3 4 6 7 5 6 5 5 6 5 4 3 4 4 4 4 4 5 4 5 4 5 5 4 5 5 5 5 5 5 4 4 4 4 4 3 3 3
3 2 5 4 2 2 2 2 2 4 6 4 1 1 2 3 3 2 1 1 2 2 4 3 2 2 4 5 6 5 5 5 5 5 5 5 4 4 4 4 4 5 5 4 5 5 5 5 5 5 6 5 4 4 4 4 4 4 4 4 4 4 4
2 4 4 2 1 2 3 4 5 6 1 3 3 1 1 1 3 2 1 1 2 3 2 2 1 3 4 5 6 5 5 5 5 5 5 5 4 4 4 4 5 5 5 4 4 5 5 5 6 5 5 5 4 5 4 4 4 5 5 5 5 5 5
4 5 3 1 1 3 6 6 5 5 1 0 2 2 1 2 2 2 2 2 2 3 3 2 1 3 4 4 5 4 4 3 4 4 4 4 4 5 5 5 6 5 5 5 5 5 5 6 6 5 5 4 4 4 4 5 5 5 4 4 4 4 4
2 2 2 3 5 5 6 8 6 3 1 1 2 3 3 2 3 3 2 2 2 2 4 3 2 1 2 4 5 4 3 4 4 4 4 4 5 6 5 5 4 5 5 5 5 4 5 5 6 7 6 5 5 5 4 4 4 3 4 4 4 4 4
2 1 3 5 5 5 7 8 6 2 1 3 4 4 4 4 3 3 2 2 2 3 2 4 4 3 3 2 2 4 3 5 5 4 4 4 4 5 5 4 5 5 6 6 5 6 5 6 6 6 6 6 5 5 4 4 3 7 10 6 3 3 3
3 4 6 5 4 6 7 7 5 2 3 5 5 5 4 4 2 2 3 3 3 3 2 1 2 3 4 4 5 6 5 5 5 4 2 3 1 2 4 4 5 6 6 6 6 6 5 5 6 6 5 5 5 5 5 4 5 9 8 7 6 4 4
5 4 5 6 6 6 7 8 7 4 5 6 6 4 3 3 2 2 1 1 1 1 1 3 3 4 3 2 5 7 8 6 4 3 2 1 1 2 3 3 5 6 6 6 7 5 5 6 6 5 4 4 4 5 4 4 8 8 9 9 9 7 4
3 4 6 5 5 6 6 7 7 5 5 4 5 5 4 2 2 1 3 3 3 3 2 3 3 4 4 4 5 6 7 5 5 5 3 1 0 1 3 4 5 6 6 6 5 6 6 6 6 5 4 4 5 5 4 4 8 8 9 8 8 8 6
5 5 5 5 5 6 6 6 6 5 5 5 5 4 3 2 2 3 4 4 4 4 4 4 3 4 5 5 6 6 6 5 6 5 3 1 1 2 3 4 4 4 4 4 4 5 6 6 6 5 4 4 4 4 4 4 7 7 8 8 8 9 6
4 5 5 4 5 6 6 6 6 6 6 5 4 3 3 3 1 3 4 4 4 4 5 4 4 4 4 5 5 4 4 3 4 2 2 2 2 2 2 4 5 5 4 3 3 5 6 6 6 4 4 3 3 3 4 3 7 7 8 7 7 8 5
3 3 3 4 4 5 4 5 5 6 6 3 2 3 3 3 2 4 4 4 4 3 4 4 4 3 3 4 5 5 4 6 6 5 5 5 3 3 3 4 4 5 4 4 3 2 4 5 4 5 4 3 3 3 4 3 6 6 7 7 7 8 3
3 5 5 5 4 5 3 4 5 5 4 5 5 4 4 2 2 4 5 4 3 3 3 3 3 3 3 3 4 6 6 7 8 7 4 4 3 3 4 5 5 4 3 5 3 3 4 4 3 3 4 3 1 2 2 2 4 5 6 6 7 5 3
4 5 5 6 3 3 4 4 5 4 3 5 5 4 3 3 3 4 4 3 2 2 2 2 2 1 2 3 4 5 6 6 6 5 5 3 2 2 4 4 4 3 3 5 5 4 4 4 4 3 2 1 2 1 1 2 4 6 6 6 5 4 3
3 4 4 4 4 2 3 3 3 4 4 4 6 5 3 3 3 4 4 3 2 1 1 1 1 2 3 3 3 4 4 4 4 2 3 3 3 4 3 3 3 3 4 4 4 3 3 3 4 3 0 1 2 4 3 1 2 6 5 5 5 3 2
3 2 3 4 4 1 1 1 2 5 6 6 5 5 3 2 3 2 3 3 2 1 2 3 3 3 2 2 3 3 3 4 4 3 2 3 3 3 4 3 3 3 4 4 3 4 3 3 3 4 1 1 2 3 2 2 1 3 4 5 5 6 3
1 1 1 2 4 4 3 3 1 1 4 5 4 4 3 2 1 1 2 4 3 4 6 4 3 2 3 1 2 3 4 4 4 5 4 4 4 4 4 4 4 4 5 5 4 4 3 3 2 1 2 2 1 2 1 2 2 1 2 4 5 7 6
6 6 5 2 2 3 5 4 3 2 4 4 4 3 2 1 1 2 1 3 3 5 6 2 2 0 1 1 2 2 3 3 3 5 5 4 5 4 2 3 5 4 4 4 4 4 4 3 2 2 1 1 2 2 0 1 4 2 1 2 5 5 7
8 7 6 7 7 5 4 6 7 6 4 3 2 2 2 1 2 3 3 1 4 4 6 3 4 1 2 2 2 3 3 3 3 4 3 3 4 4 3 3 5 4 3 4 4 4 4 3 2 2 1 2 2 2 3 2 2 2 1 3 4 6 6
5 5 6 7 7 7 8 8 7 7 5 3 2 2 2 2 0 2 4 4 7 1 4 3 3 3 3 3 3 3 2 2 3 2 2 3 3 3 3 4 4 3 3 3 4 4 3 1 1 1 2 2 2 1 2 2 2 3 3 2 3 5 6
5 5 6 7 7 6 7 7 8 7 8 5 1 1 0 1 1 2 5 3 9 6 3 5 2 2 3 2 1 2 3 1 0 1 0 2 3 2 3 3 3 3 3 3 3 3 3 3 2 3 3 2 3 2 1 2 2 2 3 6 6 6 6
6 6 7 7 7 6 6 7 8 8 8 7 5 0 2 2 3 2 2 2 5 12 8 6 4 3 3 3 4 3 3 2 2 2 2 2 1 1 2 4 5 4 4 4 3 3 4 4 3 3 3 4 4 3 2 2 2 2 3 3 5 5 7
5 5 5 6 4 4 6 6 7 7 7 7 6 4 1 3 4 3 2 5 5 11 13 10 9 7 7 8 8 7 6 6 5 3 2 1 1 1 2 3 4 4 4 3 4 3 4 4 4 4 3 4 4 2 1 2 2 2 3 3 3 3 4
3 5 4 3 3 4 5 6 7 6 6 5 6 5 3 2 6 6 5 5 7 3 6 7 6 7 7 8 8 9 9 8 8 7 4 2 3 3 3 3 4 5 5 5 5 5 5 5 5 5 5 5 4 1 1 1 2 2 3 4 3 3 3
4 4 5 6 5 5 6 5 7 5 6 6 5 5 5 4 6 7 6 4 5 3 3 8 8 4 3 2 2 4 4 3 4 5 5 4 3 2 1 2 3 3 1 1 2 4 5 5 5 5 4 5 5 5 3 2 2 2 2 3 3 3 3
6 7 6 5 5 6 6 6 5 6 6 5 5 4 4 5 5 6 5 4 5 5 6 3 5 8 3 1 3 2 2 2 3 4 4 5 5 5 3 6 7 3 1 2 2 3 3 2 4 4 6 5 3 3 4 4 2 1 2 4 4 5 6
7 6 6 6 7 7 6 6 6 6 6 5 4 4 4 5 5 6 6 6 5 3 4 4 6 1 5 6 5 5 5 5 5 5 5 5 5 5 5 3 5 8 7 3 2 2 4 3 2 7 5 4 5 3 2 3 3 2 6 4 5 7 7
5 5 4 4 5 5 6 6 5 5 4 3 4 4 4 6 5 4 5 6 6 4 4 4 3 3 3 1 3 8 7 4 4 6 7 6 5 5 5 5 5 3 4 3 4 4 4 5 6 6 4 2 2 3 1 2 2 4 6 5 5 7 6
Wind_Direction
198 211 225 219 208 202 205 209 206 204 199 193 191 186 171 168 150 139 134 133 123 117 116 112 115 105 96 91 88 99 120 128 123 127 145 155 153 149 145 176 143 185 183 200 285 311 332 22 80 83 77 70 70 67 67 66 65 57 57 54 60 58 69
201 229 229 229 229 232 233 232 243 306 317 276 230 195 177 170 155 153 158 129 131 141 152 148 138 119 120 101 80 74 81 102 120 100 92 121 135 137 150 160 175 210 217 225 277 314 56 63 92 93 89 78 74 74 74 68 74 71 63 55 63 46 43
226 232 236 235 237 241 257 301 337 355 336 316 302 267 205 177 179 166 146 133 144 157 163 157 149 131 125 93 57 36 30 38 70 97 115 135 138 129 116 135 167 218 240 263 305 49 82 93 92 92 101 97 89 80 85 82 79 82 80 72 67 65 51
227 231 235 244 259 276 296 301 304 12 328 288 280 270 272 212 197 179 167 156 155 169 164 179 133 109 90 74 64 40 20 349 24 51 93 114 128 121 102 81 67 162 197 277 350 80 91 99 103 104 110 104 98 90 80 88 78 78 84 85 81 82 68
258 260 265 257 255 259 260 280 21 0 299 301 298 309 291 279 219 184 178 175 166 179 184 164 143 109 89 85 79 54 23 15 31 80 101 104 99 95 98 63 354 285 282 301 40 99 97 100 105 101 94 108 112 106 100 89 87 89 77 67 77 74 71
248 249 244 245 247 252 251 59 46 14 345 328 319 334 313 281 260 213 187 169 183 145 132 116 101 93 83 81 81 82 76 55 66 84 105 103 101 72 57 33 12 322 274 281 81 101 104 112 121 127 117 104 95 110 103 92 59 52 63 69 60 37 61
241 244 241 233 229 247 280 43 22 1 350 338 329 333 339 322 280 268 222 180 174 163 170 162 135 101 114 98 87 88 78 76 75 82 85 81 76 78 54 31 24 26 2 94 85 119 117 121 123 123 121 123 133 116 91 75 48 27 21 49 51 42 44
238 242 244 229 180 345 12 36 14 343 330 332 347 352 351 331 309 304 285 262 204 172 173 167 152 127 123 100 105 99 97 87 89 89 91 89 80 80 66 42 31 7 31 59 67 138 120 124 130 129 128 118 89 80 67 57 42 12 18 36 28 29 15
243 243 265 1 52 38 35 49 20 312 303 332 1 348 334 324 309 303 304 309 305 278 214 180 142 131 124 119 110 106 103 103 95 96 94 93 88 86 75 66 48 28 44 35 64 101 126 132 133 124 98 87 80 74 67 56 54 31 44 37 32 22 11
247 259 339 43 35 31 36 8 345 325 307 321 22 338 329 317 308 310 325 314 328 317 309 357 80 116 118 115 112 114 110 104 108 97 93 88 82 77 54 56 47 40 45 33 55 78 80 86 101 93 93 87 74 64 64 53 39 40 37 35 26 17 1
281 322 28 40 26 358 10 353 323 293 289 275 239 272 322 320 306 320 327 334 336 324 346 8 5 119 126 122 116 114 116 118 114 108 101 100 85 73 58 49 50 44 40 40 58 66 83 77 73 81 75 76 75 68 54 43 36 35 30 23 19 9 346
298 11 42 50 17 333 292 253 239 234 235 250 283 45 3 339 320 307 1 9 26 4 358 12 0 102 126 122 122 135 137 138 133 125 118 103 89 80 63 51 47 47 43 53 83 79 76 88 71 78 79 77 81 79 72 56 46 39 25 8 353 351 1
351 39 53 62 229 245 258 251 237 241 303 7 357 38 82 35 350 1 27 28 39 86 90 26 69 130 137 147 143 154 160 150 140 125 116 116 117 93 68 53 46 43 43 57 81 94 93 81 84 75 85 77 72 62 52 46 35 29 13 3 5 5 358
6 41 27 15 300 253 253 254 249 250 148 31 299 261 172 149 133 118 141 151 123 92 84 36 76 134 148 160 153 158 157 138 119 119 121 123 106 85 71 55 45 48 53 70 69 81 96 101 98 92 80 70 62 52 44 32 26 16 3 13 22 12 6
7 28 339 299 273 268 262 258 250 246 122 203 245 254 229 172 140 137 128 133 161 111 96 91 83 31 204 177 176 166 131 116 88 73 72 75 74 71 68 70 72 69 69 70 78 81 84 96 101 100 85 64 54 43 34 33 11 358 14 50 32 31 23
325 300 263 256 253 256 258 260 266 269 175 234 234 234 238 217 182 145 130 254 239 137 139 117 126 142 250 260 36 47 60 83 93 116 139 120 116 123 116 104 103 92 90 87 86 89 91 92 88 85 88 83 57 45 35 28 353 30 30 52 85 30 25
285 263 254 262 270 266 266 272 272 243 232 248 246 232 234 240 229 125 143 183 236 238 192 107 108 140 161 140 120 114 112 128 150 168 136 98 64 52 77 81 90 100 103 106 98 99 104 99 90 82 81 80 72 52 37 17 32 31 28 30 39 60 21
260 271 272 264 261 268 274 274 276 250 236 241 252 249 234 247 220 182 149 161 323 345 64 90 109 137 131 123 142 139 146 157 153 133 150 147 80 46 65 70 88 100 113 118 118 113 106 95 95 93 84 79 74 60 43 28 40 25 26 22 17 19 31
303 286 265 266 264 265 264 268 274 275 260 244 245 251 250 220 181 131 105 122 152 142 84 91 123 131 130 160 161 158 159 149 148 153 161 191 105 32 54 61 81 105 121 131 134 123 115 118 102 92 82 84 84 67 39 29 41 26 25 16 12 9 21
253 260 272 271 266 267 277 281 279 274 261 254 249 243 257 240 190 137 144 141 135 128 130 126 128 152 163 170 164 167 167 160 162 151 145 123 40 33 42 50 54 76 101 111 113 121 116 108 102 98 92 84 83 68 47 34 31 19 15 10 8 5 20
254 246 254 271 280 270 266 273 287 287 279 261 248 243 240 254 142 109 107 124 123 130 131 138 158 182 183 163 148 102 49 37 23 49 87 105 51 40 60 70 67 78 89 99 127 146 136 128 116 112 93 81 64 70 48 14 22 15 11 1 2 2 18
247 229 248 237 232 259 252 254 262 279 293 308 279 261 243 259 108 106 111 108 117 116 127 152 172 181 166 147 112 113 134 143 167 194 162 152 154 140 105 84 88 101 114 108 87 75 99 84 93 107 106 71 51 66 54 347 18 19 8 4 3 6 4
227 241 234 260 224 268 298 290 284 291 307 315 310 305 297 321 81 98 103 98 103 119 142 155 175 182 173 155 145 138 168 171 172 163 163 143 136 131 116 108 97 84 102 109 115 137 119 119 103 114 119 102 72 62 23 337 6 33 14 6 1 5 352
251 248 258 274 293 285 302 306 304 308 310 315 321 321 337 23 65 83 80 82 99 133 173 127 200 182 149 172 169 155 161 167 170 165 158 141 150 127 95 98 108 123 121 125 136 145 144 128 112 104 104 143 262 300 278 297 1 37 13 7 1 20 4
280 255 266 269 283 9 23 329 309 336 346 7 328 342 34 39 61 78 77 89 92 81 115 97 168 184 208 200 201 168 166 153 133 137 129 132 110 117 125 132 126 107 104 110 112 144 147 127 118 118 243 5 341 281 244 260 5 36 12 6 357 344 5
351 336 312 310 311 289 129 330 36 8 345 335 329 354 37 60 66 60 96 110 116 243 213 178 207 195 201 193 181 179 151 139 153 151 117 125 121 119 126 126 104 100 107 102 130 148 137 109 123 174 229 10 279 293 317 173 12 28 358 3 348 331 320
59 87 347 326 317 345 64 86 58 323 298 304 352 14 34 58 58 58 111 128 129 235 242 171 183 170 170 133 131 136 129 130 140 149 142 133 128 141 141 126 118 113 119 130 127 120 111 115 123 104 323 301 311 284 284 167 123 357 347 350 343 339 339
62 49 29 31 13 34 1 15 49 352 302 307 0 27 37 55 344 303 88 117 158 235 253 139 170 256 77 111 100 119 119 129 142 154 151 152 142 150 112 123 102 111 129 135 138 137 143 121 132 110 348 355 0 354 30 206 145 160 31 334 350 347 345
51 45 35 27 30 18 41 18 26 13 332 336 11 64 82 118 270 312 324 73 121 219 249 157 141 139 106 140 131 143 136 147 186 168 160 157 161 135 133 89 100 103 119 135 133 150 154 136 99 102 64 37 20 39 42 23 341 143 133 31 359 345 348
56 49 37 38 37 31 40 40 38 45 11 338 351 31 86 152 314 345 334 46 98 75 299 312 87 98 115 131 142 125 122 156 196 196 199 156 136 106 95 93 89 103 142 164 154 151 151 99 94 89 175 181 224 38 25 11 11 352 353 334 318 330 336
64 59 53 47 34 41 47 44 39 41 49 40 263 318 40 108 77 4 350 7 114 146 234 287 10 68 80 63 68 78 53 63 289 258 13 57 74 113 106 91 108 153 209 174 139 142 172 221 193 198 211 199 207 231 346 340 3 333 335 325 310 310 317
46 45 45 40 30 32 38 36 40 37 35 41 43 243 213 157 123 77 325 271 137 142 173 217 225 161 142 122 111 117 135 112 53 30 49 58 79 134 109 151 172 191 186 180 157 164 184 209 209 216 211 203 218 236 274 324 348 332 323 331 320 318 312
40 44 51 49 22 40 37 43 40 33 31 22 11 18 216 171 144 166 243 269 230 153 158 183 186 188 178 156 157 156 154 150 154 165 205 196 148 136 145 168 187 197 178 169 186 192 201 214 208 213 207 203 214 229 345 324 349 317 307 302 308 297 310
54 55 46 76 40 46 46 46 47 35 26 15 348 340 349 126 145 166 200 235 245 192 140 158 177 199 195 175 163 158 157 160 161 152 147 154 166 166 173 176 187 192 187 187 197 205 221 209 218 210 205 192 194 187 318 341 288 300 308 304 317 315 319
69 70 55 42 22 36 46 35 36 31 29 9 341 341 337 19 114 150 151 189 258 281 214 161 172 209 291 315 177 134 136 144 137 137 141 129 106 62 41 209 193 177 149 314 213 220 214 212 222 203 186 172 167 166 186 254 252 260 233 276 302 308 321
68 62 49 36 39 36 34 33 38 33 29 6 350 351 3 14 90 133 132 175 237 261 281 288 149 151 158 25 356 37 121 187 202 153 157 146 131 131 97 54 61 51 132 163 38 34 348 230 206 184 160 166 191 162 156 193 216 153 255 272 307 309 291
76 62 50 35 43 31 39 32 30 33 26 356 337 348 14 36 60 130 148 170 213 250 291 321 310 18 127 149 153 173 190 203 191 151 129 148 155 147 131 115 58 45 38 43 77 71 62 58 149 141 145 145 164 229 68 95 117 222 271 299 321 295 289
87 84 75 57 60 49 43 33 25 24 359 327 328 337 16 45 46 117 155 161 164 187 209 237 242 258 287 138 142 180 172 151 164 147 153 162 165 154 150 146 125 87 45 65 94 81 74 75 85 86 101 70 97 160 148 129 168 251 275 296 304 305 293